PST,Max TemperatureF,Mean TemperatureF,Min TemperatureF,Max Dew PointF,MeanDew PointF,Min DewpointF,Max Humidity, Mean Humidity, Min Humidity, Max Sea Level PressureIn, Mean Sea Level PressureIn, Min Sea Level PressureIn, Max VisibilityMiles, Mean VisibilityMiles, Min VisibilityMiles, Max Wind SpeedMPH, Mean Wind SpeedMPH, Max Gust SpeedMPH,PrecipitationIn, CloudCover, Events, WindDirDegrees
2013-12-1,79,66,53,35,26,15,46,28,10,30.26,30.19,30.14,10,10,10,12,5,14,0.00,1,,311
2013-12-2,75,62,49,39,26,16,35,24,12,30.14,30.01,29.84,10,10,10,12,3,14,0.00,2,,328
2013-12-3,72,60,47,46,38,33,63,45,27,29.82,29.72,29.63,10,10,10,9,2,13,0.00,2,,87
2013-12-4,63,59,54,45,24,7,56,38,19,29.98,29.86,29.62,10,10,10,23,10,30,0.00,3,,347
2013-12-5,58,49,40,29,21,10,48,35,21,30.13,30.04,29.98,10,10,10,9,2,14,0.00,2,,346
2013-12-6,57,48,38,31,27,24,60,45,30,30.22,30.15,30.10,10,10,10,10,3,13,0.00,2,,113
2013-12-7,58,47,36,37,32,28,82,59,36,30.09,29.98,29.88,10,10,10,12,3,15,0.00,2,,89
2013-12-8,59,51,43,30,21,7,53,40,27,30.25,30.14,30.02,10,10,10,18,6,21,0.00,3,,320
2013-12-9,57,50,42,13,-3,-10,29,18,7,30.47,30.40,30.25,10,10,10,30,7,32,0.00,0,,292
2013-12-10,60,47,33,16,1,-8,20,13,6,30.42,30.29,30.19,10,10,10,9,4,12,0.00,1,,313
2013-12-11,66,51,36,20,11,4,52,31,10,30.27,30.22,30.19,10,10,10,8,2,10,0.00,1,,277
2013-12-12,72,59,46,39,23,10,28,23,18,30.25,30.17,30.09,10,10,10,9,5,13,T,3,Rain,286
2013-12-13,68,55,41,40,33,27,70,52,34,30.27,30.16,30.11,10,10,10,13,4,14,0.00,0,,173
2013-12-14,73,60,46,30,19,17,46,29,12,30.39,30.33,30.25,10,10,10,21,8,25,0.00,0,,319
2013-12-15,76,62,47,34,23,17,34,23,11,30.37,30.28,30.20,10,10,10,9,4,12,0.00,1,,273
2013-12-16,76,62,48,36,28,21,56,36,15,30.24,30.18,30.14,10,10,10,10,3,12,0.00,1,,348
2013-12-17,79,65,51,36,29,24,45,30,15,30.21,30.13,30.04,10,10,10,8,2,9,0.00,1,,332
2013-12-18,76,66,55,39,31,25,40,29,18,30.02,29.90,29.75,10,10,9,9,4,10,0.00,1,,350
2013-12-19,65,57,49,41,39,37,63,52,40,29.75,29.71,29.66,10,10,10,22,7,25,0.00,2,,308
2013-12-20,69,57,45,39,35,31,71,49,27,29.89,29.81,29.74,10,10,9,16,5,18,0.00,1,,305
2013-12-21,70,57,44,41,35,29,70,49,27,30.07,29.92,29.85,10,10,10,13,2,14,0.00,0,,290
2013-12-22,68,56,43,44,39,35,83,60,37,30.32,30.21,30.08,10,10,10,9,4,12,0.00,0,,355
2013-12-23,75,61,47,40,30,27,66,41,16,30.40,30.33,30.28,10,10,10,7,4,8,0.00,0,,313
2013-12-24,81,65,48,36,32,28,42,30,18,30.26,30.21,30.14,10,10,9,8,5,12,0.00,0,,313
2013-12-25,78,69,59,32,27,15,32,25,18,30.32,30.26,30.20,10,10,10,15,8,18,0.00,0,,309
2013-12-26,79,66,52,31,21,12,19,18,17,30.28,30.22,30.16,10,10,10,10,3,13,0.00,0,,283
2013-12-27,76,63,50,30,21,9,20,19,17,30.24,30.16,30.10,10,10,10,10,5,15,0.00,0,,334
2013-12-28,72,62,51,30,22,15,38,29,19,30.08,30.01,29.94,10,10,10,10,3,13,0.00,1,,339
2013-12-29,74,61,48,29,22,14,26,23,19,30.20,30.12,30.01,10,10,10,24,8,30,0.00,0,,336
2013-12-30,73,58,43,27,16,7,23,20,17,30.30,30.24,30.19,10,10,10,10,4,14,0.00,0,,336
2013-12-31,73,57,40,28,17,9,32,25,18,30.24,30.17,30.10,10,10,10,13,5,14,0.00,0,,336